Weather History for Luverne, MN

Change the Weather History Date:

Friday, September 6, 2013

  Actual Average (KFSD) Record (KFSD)
Temperature  
Mean Temperature 76 °F 65 °F  
Max Temperature 91 °F 77 °F 104 °F (1976)
Min Temperature 62 °F 54 °F 34 °F (1956)
Degree Days  
Heating Degree Days 0 3  
Month to date heating degree days 14  
Since 1 July heating degree days 45  
Cooling Degree Days 12 3  
Month to date cooling degree days 23  
Year to date cooling degree days 648  
Growing Degree Days 26 (Base 50)    
Moisture  
Dew Point 65 °F    
Average Humidity 72    
Maximum Humidity 94    
Minimum Humidity 41    
Precipitation  
Precipitation 0.00 in 0.10 in 1.79 in (1948)
Month to date precipitation 0.59  
Year to date precipitation 19.98  
Snow  
Snow 0.00 in 0.00 in 0.00 in ()
Month to date snowfall 0.0  
Since 1 July snowfall 0.0  
Since 1 September snowfall 0.0  
Snow Depth -    
Sea Level Pressure  
Sea Level Pressure 29.99 in    
Wind  
Wind Speed 6 mph (South)    
Max Wind Speed 15 mph    
Max Gust Speed 21 mph    
Visibility 10 miles    
Events      
T = Trace of Precipitation, MM = Missing Value Source: NWS Daily Summary

Daily Weather History Graph

Daily Weather History Graph

Search for Another Location

Airport:

Trip Planner

Search our weather history database for the weather conditions in past years. The results will help you decide how hot, cold, wet, or windy it might be!

Date:

Astronomy

Sep. 06, 2013 Rise Set
Actual Time 6:54 AM CDT 7:50 PM CDT
Civil Twilight 6:25 AM CDT 8:20 PM CDT
Nautical Twilight 5:50 AM CDT 8:54 PM CDT
Astronomical Twilight 5:13 AM CDT 9:31 PM CDT
Moon 8:11 AM CDT (9/6) 8:10 PM CDT (9/6)
Length of Visible Light 13h 54m
Length of Day
12h 56m
New Moon, 2% of the Moon is Illuminated
Sep 6
New Moon
Sep 12
First Quarter
Sep 19
Full
Sep 26
Last Quarter
Oct 4
New

Hourly Weather History & Observations

Time (CDT) Temp. Heat Index Dew Point Humidity Pressure Visibility Wind Dir Wind Speed Gust Speed Precip Events Conditions
12:13 AM 68.0 °F - 62.6 °F 83% 30.10 in 10.0 mi SE 4.6 mph - N/A   Clear
12:33 AM 68.0 °F - 62.6 °F 83% 30.10 in 10.0 mi SE 4.6 mph - N/A   Clear
12:53 AM 68.0 °F - 62.6 °F 83% 30.10 in 10.0 mi ESE 3.5 mph - N/A   Clear
1:13 AM 68.0 °F - 62.6 °F 83% 30.10 in 10.0 mi SE 4.6 mph - N/A   Scattered Clouds
1:33 AM 66.2 °F - 62.6 °F 88% 30.10 in 10.0 mi Calm Calm - N/A   Scattered Clouds
1:52 AM 66.2 °F - 62.6 °F 88% 30.09 in 10.0 mi SE 3.5 mph - N/A   Clear
2:13 AM 64.4 °F - 62.6 °F 94% 30.09 in 10.0 mi SE 3.5 mph - N/A   Clear
2:33 AM 64.4 °F - 62.6 °F 94% 30.09 in 10.0 mi Calm Calm - N/A   Clear
2:52 AM 64.4 °F - 60.8 °F 88% 30.09 in 10.0 mi SE 3.5 mph - N/A   Clear
3:13 AM 64.4 °F - 60.8 °F 88% 30.09 in 10.0 mi SSE 3.5 mph - N/A   Clear
3:33 AM 64.4 °F - 60.8 °F 88% 30.09 in 10.0 mi SSE 4.6 mph - N/A   Clear
3:53 AM 64.4 °F - 60.8 °F 88% 30.09 in 10.0 mi Calm Calm - N/A   Clear
4:13 AM 62.6 °F - 59.0 °F 88% 30.09 in 10.0 mi Calm Calm - N/A   Clear
4:33 AM 62.6 °F - 60.8 °F 94% 30.08 in 10.0 mi SSE 3.5 mph - N/A   Clear
4:53 AM 64.4 °F - 60.8 °F 88% 30.08 in 10.0 mi SSE 3.5 mph - N/A   Clear
5:13 AM 64.4 °F - 60.8 °F 88% 30.08 in 10.0 mi SSE 3.5 mph - N/A   Mostly Cloudy
5:33 AM 64.4 °F - 60.8 °F 88% 30.07 in 10.0 mi SSE 3.5 mph - N/A   Mostly Cloudy
5:53 AM 64.4 °F - 60.8 °F 88% 30.07 in 10.0 mi SSE 4.6 mph - N/A   Scattered Clouds
6:13 AM 64.4 °F - 60.8 °F 88% 30.07 in 10.0 mi SE 3.5 mph - N/A   Scattered Clouds
6:33 AM 64.4 °F - 60.8 °F 88% 30.06 in 10.0 mi SSE 3.5 mph - N/A   Clear
6:53 AM 64.4 °F - 60.8 °F 88% 30.05 in 10.0 mi SSE 4.6 mph - N/A   Clear
7:13 AM 64.4 °F - 60.8 °F 88% 30.05 in 10.0 mi SSE 5.8 mph - N/A   Clear
7:33 AM 64.4 °F - 60.8 °F 88% 30.05 in 10.0 mi SSE 5.8 mph - N/A   Clear
7:53 AM 66.2 °F - 60.8 °F 83% 30.05 in 10.0 mi SSE 5.8 mph - N/A   Clear
8:13 AM 68.0 °F - 60.8 °F 78% 30.04 in 10.0 mi SSE 5.8 mph - N/A   Clear
8:33 AM 68.0 °F - 62.6 °F 83% 30.04 in 10.0 mi South 8.1 mph - N/A   Clear
8:53 AM 69.8 °F - 62.6 °F 78% 30.03 in 10.0 mi South 8.1 mph - N/A   Clear
9:13 AM 71.6 °F - 62.6 °F 73% 30.02 in 10.0 mi South 8.1 mph - N/A   Clear
9:33 AM 73.4 °F - 62.6 °F 69% 30.02 in 10.0 mi South 8.1 mph - N/A   Clear
9:53 AM 75.2 °F - 62.6 °F 65% 30.02 in 10.0 mi South 8.1 mph - N/A   Clear
10:13 AM 77.0 °F - 62.6 °F 61% 30.01 in 10.0 mi South 13.8 mph 18.4 mph N/A   Clear
10:32 AM 78.8 °F - 62.6 °F 57% 30.01 in 10.0 mi South 12.7 mph 17.3 mph N/A   Clear
10:53 AM 80.6 °F 81.8 °F 62.6 °F 54% 30.00 in 10.0 mi South 12.7 mph 18.4 mph N/A   Clear
11:13 AM 80.6 °F 82.3 °F 64.4 °F 58% 29.99 in 10.0 mi South 12.7 mph 17.3 mph N/A   Clear
11:32 AM 82.4 °F 83.9 °F 64.4 °F 54% 29.99 in 10.0 mi South 11.5 mph 17.3 mph N/A   Clear
11:53 AM 82.4 °F 83.9 °F 64.4 °F 54% 29.99 in 10.0 mi South 15.0 mph 19.6 mph N/A   Clear
12:13 PM 84.2 °F 85.6 °F 64.4 °F 51% 29.98 in 10.0 mi South 12.7 mph - N/A   Clear
12:32 PM 86.0 °F 87.3 °F 64.4 °F 48% 29.97 in 10.0 mi South 15.0 mph 20.7 mph N/A   Clear
12:53 PM 86.0 °F 87.3 °F 64.4 °F 48% 29.96 in 10.0 mi South 15.0 mph 20.7 mph N/A   Clear
1:13 PM 87.8 °F 89.4 °F 64.4 °F 46% 29.95 in 10.0 mi South 13.8 mph 19.6 mph N/A   Clear
1:32 PM 87.8 °F 90.4 °F 66.2 °F 49% 29.95 in 10.0 mi South 11.5 mph 18.4 mph N/A   Clear
1:53 PM 87.8 °F 90.4 °F 66.2 °F 49% 29.95 in 10.0 mi South 13.8 mph 20.7 mph N/A   Clear
2:13 PM 87.8 °F 91.4 °F 68.0 °F 52% 29.94 in 10.0 mi South 11.5 mph 19.6 mph N/A   Clear
2:32 PM 89.6 °F 93.4 °F 68.0 °F 49% 29.93 in 10.0 mi South 11.5 mph 19.6 mph N/A   Clear
2:53 PM 89.6 °F 92.2 °F 66.2 °F 46% 29.92 in 10.0 mi South 13.8 mph - N/A   Clear
3:13 PM 91.4 °F 94.0 °F 66.2 °F 43% 29.92 in 10.0 mi South 11.5 mph 16.1 mph N/A   Clear
3:32 PM 91.4 °F 93.2 °F 64.4 °F 41% 29.91 in 10.0 mi SSW 15.0 mph 19.6 mph N/A   Clear
3:53 PM 89.6 °F 92.2 °F 66.2 °F 46% 29.91 in 10.0 mi South 12.7 mph 19.6 mph N/A   Clear
4:13 PM 89.6 °F 93.4 °F 68.0 °F 49% 29.90 in 10.0 mi South 10.4 mph 17.3 mph N/A   Clear
4:32 PM 89.6 °F 93.4 °F 68.0 °F 49% 29.90 in 10.0 mi South 11.5 mph 17.3 mph N/A   Clear
4:53 PM 89.6 °F 93.4 °F 68.0 °F 49% 29.90 in 10.0 mi SSW 10.4 mph - N/A   Clear
5:13 PM 89.6 °F 93.4 °F 68.0 °F 49% 29.90 in 10.0 mi SSW 12.7 mph 16.1 mph N/A   Clear
5:33 PM 87.8 °F 92.6 °F 69.8 °F 55% 29.90 in 10.0 mi South 11.5 mph - N/A   Clear
5:53 PM 87.8 °F 92.6 °F 69.8 °F 55% 29.90 in 10.0 mi South 8.1 mph - N/A   Clear
6:12 PM 86.0 °F 90.4 °F 69.8 °F 58% 29.90 in 10.0 mi South 8.1 mph - N/A   Clear
6:33 PM 86.0 °F 91.8 °F 71.6 °F 62% 29.90 in 10.0 mi South 6.9 mph - N/A   Clear
6:53 PM 86.0 °F 91.8 °F 71.6 °F 62% 29.90 in 10.0 mi South 6.9 mph - N/A   Clear
7:13 PM 82.4 °F 87.2 °F 71.6 °F 70% 29.90 in 10.0 mi South 5.8 mph - N/A   Clear
7:29 PM 82.4 °F 87.2 °F 71.6 °F 70% 29.90 in 10.0 mi South 4.6 mph - N/A   Clear
7:47 PM 80.6 °F 83.9 °F 69.8 °F 70% 29.90 in 10.0 mi South 4.6 mph - N/A   Clear
8:05 PM 80.6 °F 84.6 °F 71.6 °F 74% 29.92 in 10.0 mi Calm Calm - N/A   Clear
8:25 PM 78.8 °F - 69.8 °F 74% 29.91 in 10.0 mi South 4.6 mph - N/A   Clear
8:45 PM 78.8 °F - 69.8 °F 74% 29.90 in 10.0 mi SSE 5.8 mph - N/A   Clear
9:05 PM 78.8 °F - 71.6 °F 78% 29.90 in 10.0 mi SSE 3.5 mph - N/A   Clear
9:25 PM 77.0 °F - 69.8 °F 78% 29.90 in 10.0 mi SSE 4.6 mph - N/A   Clear
9:45 PM 75.2 °F - 69.8 °F 83% 29.90 in 10.0 mi SSE 3.5 mph - N/A   Clear
10:05 PM 75.2 °F - 69.8 °F 83% 29.90 in 10.0 mi South 3.5 mph - N/A   Clear
10:25 PM 75.2 °F - 69.8 °F 83% 29.89 in 10.0 mi South 8.1 mph - N/A   Clear
10:42 PM 73.4 °F - 69.8 °F 88% 29.89 in 10.0 mi South 5.8 mph - N/A   Clear
10:53 PM 73.4 °F - 69.8 °F 88% 29.90 in 7.0 mi South 3.5 mph - N/A   Clear
11:12 PM 73.4 °F - 69.8 °F 88% 29.91 in 10.0 mi Calm Calm - N/A   Clear
11:33 PM 73.4 °F - 69.8 °F 88% 29.91 in 10.0 mi Calm Calm - N/A   Clear
11:53 PM 71.6 °F - 68.0 °F 88% 29.90 in 7.0 mi South 3.5 mph - N/A   Clear